Location: ?astrovice
(49.6513°N, 14.9287°E)
Time: 08:48:36
(UTC+00:00)

CZ-2C R/B - Pass Details

Date: 09 April 2020
Orbit: 705 x 907 km, 98.1° (Epoch: 06 June)

Event Time Altitude Azimuth Distance (km) Brightness Sun altitude
Rises 18:32:12 0° 167° (SSE) 3,148 5.8 -8.1°
Reaches altitude 10° 18:34:29 10° 169° (S) 2,210 5.1 -8.5°
Maximum altitude 18:39:19 79° 256° (WSW) 729 3.0 -9.2°
Drops below altitude 10° 18:44:05 10° 344° (NNW) 2,187 6.0 -9.9°
Sets 18:46:21 0° 346° (NNW) 3,113 6.8 -10.2°
